Nuiqsut, AK

12:08 AM AKDT on May 26, 2017 (GMT -0800)
Nuiqsut

Weather History for PAQT - March, 2012

Change the Weather History Date:

Friday, March 9, 2012

  Actual Average (PAKU) Record (PAKU)
Temperature  
Mean Temperature -39 °F -  
Max Temperature -35 °F -7 °F 28 °F (2002)
Min Temperature -43 °F -18 °F -45 °F (1999)
Degree Days  
Heating Degree Days 104    
Moisture  
Dew Point -    
Average Humidity    
Maximum Humidity    
Minimum Humidity    
Precipitation  
Precipitation 0.00 in - - ()
Sea Level Pressure  
Sea Level Pressure 29.98 in    
Wind  
Wind Speed 3 mph (SW)    
Max Wind Speed 8 mph    
Max Gust Speed -    
Visibility 8 miles    
Events      
Averages and records for this station are not official NWS values.
T = Trace of Precipitation, MM = Missing Value Source: NWS Daily Summary

Daily Weather History Graph

Daily Weather History Graph

Search for Another Location

Airport or City:

Trip Planner

Search our weather history database for the weather conditions in past years. The results will help you decide how hot, cold, wet, or windy it might be!

Date:

Astronomy

Mar. 09, 2012 Rise Set
Actual Time 7:50 AM AKST 6:39 PM AKST
Civil Twilight 6:49 AM AKST 7:41 PM AKST
Nautical Twilight 5:36 AM AKST 8:54 PM AKST
Astronomical Twilight 4:13 AM AKST 10:20 PM AKST
Moon 10:49 PM AKST (3/9) 6:51 AM AKST (3/9)
Length of Visible Light 12h 51m
Length of Day
10h 48m
Full, 97% of the Moon is Illuminated
Mar 9
Full
Mar 14
Last Quarter
Mar 22
New
Mar 30
First Quarter
Apr 6
Full

Hourly Weather History & Observations

Time (AKST) Temp. Windchill Dew Point Humidity Pressure Visibility Wind Dir Wind Speed Gust Speed Precip Events Conditions
12:10 AM -38.2 °F - - N/A% 29.96 in 2.0 mi Calm Calm - N/A   Clear
12:18 AM -38.2 °F - - N/A% 29.96 in 1.5 mi Calm Calm - N/A   Scattered Clouds
12:35 AM -38.2 °F - - N/A% 29.96 in 3.0 mi Calm Calm - N/A   Partly Cloudy
12:53 AM -38.0 °F - - N/A% 29.96 in 10.0 mi Calm Calm - N/A   Scattered Clouds
1:15 AM -38.2 °F - - N/A% 29.96 in 5.0 mi Calm Calm - N/A   Haze
1:53 AM -42.0 °F -61.4 °F - N/A% 29.97 in 10.0 mi WSW 5.8 mph - N/A   Scattered Clouds
2:50 AM -41.8 °F -61.2 °F - N/A% 29.96 in 7.0 mi WSW 5.8 mph - N/A   Mostly Cloudy
3:00 AM -41.8 °F -61.2 °F - N/A% 29.96 in 8.0 mi WSW 5.8 mph - N/A   Mostly Cloudy
3:41 AM -38.2 °F -56.9 °F - N/A% 29.95 in 6.0 mi West 5.8 mph - N/A   Haze
3:48 AM -38.2 °F -56.9 °F - N/A% 29.95 in 4.0 mi West 5.8 mph - N/A   Haze
3:53 AM -36.9 °F -55.4 °F - N/A% 29.96 in 2.5 mi West 5.8 mph - N/A   Overcast
4:09 AM -38.2 °F -56.9 °F - N/A% 29.95 in 7.0 mi WSW 5.8 mph - N/A   Overcast
4:16 AM -38.2 °F -56.9 °F - N/A% 29.95 in 7.0 mi West 5.8 mph - N/A   Mostly Cloudy
4:30 AM -38.2 °F -56.9 °F - N/A% 29.95 in 10.0 mi West 5.8 mph - N/A   Scattered Clouds
4:53 AM -40.0 °F - - N/A% 29.95 in 4.0 mi Calm Calm - N/A   Haze
5:06 AM -41.8 °F - - N/A% 29.95 in 8.0 mi Calm Calm - N/A   Mostly Cloudy
5:38 AM -41.8 °F -58.7 °F - N/A% 29.95 in 10.0 mi SSW 4.6 mph - N/A   Scattered Clouds
5:53 AM -42.0 °F -58.9 °F - N/A% 29.95 in 9.0 mi SW 4.6 mph - N/A   Clear
6:53 AM -42.0 °F -61.4 °F - N/A% 29.96 in 10.0 mi WSW 5.8 mph - N/A   Mostly Cloudy
7:53 AM -42.0 °F -55.8 °F - N/A% 29.96 in 7.0 mi South 3.5 mph - N/A   Overcast
8:18 AM -41.8 °F -61.2 °F - N/A% 29.96 in 4.0 mi South 5.8 mph - N/A   Haze
8:50 AM -41.8 °F -61.2 °F - N/A% 29.96 in 9.0 mi SSW 5.8 mph - N/A   Scattered Clouds
8:53 AM -42.0 °F -61.4 °F - N/A% 29.96 in 9.0 mi SSW 5.8 mph - N/A   Partly Cloudy
9:53 AM -41.1 °F -57.8 °F - N/A% 29.97 in 10.0 mi SSW 4.6 mph - N/A   Clear
10:31 AM -38.2 °F -56.9 °F - N/A% 29.96 in 10.0 mi SW 5.8 mph - N/A   Mostly Cloudy
10:44 AM -38.2 °F -56.9 °F - N/A% 29.97 in 9.0 mi WSW 5.8 mph - N/A   Scattered Clouds
10:53 AM -38.9 °F -55.3 °F - N/A% 29.97 in 10.0 mi WSW 4.6 mph - N/A   Partly Cloudy
11:53 AM -36.9 °F - - N/A% 29.98 in 5.0 mi Calm Calm - N/A   Haze
12:53 PM -36.9 °F -53.0 °F - N/A% 29.99 in 10.0 mi SSW 4.6 mph - N/A   Clear
1:53 PM -35.0 °F - - N/A% 29.98 in 7.0 mi Calm Calm - N/A   Clear
2:53 PM -35.0 °F - - N/A% 29.99 in 10.0 mi Calm Calm - N/A   Clear
3:53 PM -36.0 °F -52.0 °F - N/A% 29.99 in 10.0 mi South 4.6 mph - N/A   Clear
4:53 PM -36.0 °F -52.0 °F - N/A% 30.00 in 10.0 mi South 4.6 mph - N/A   Clear
5:53 PM -38.0 °F -56.7 °F - N/A% 30.01 in 10.0 mi SW 5.8 mph - N/A   Clear
6:24 PM -38.2 °F -51.5 °F - N/A% 30.01 in 10.0 mi SW 3.5 mph - N/A   Mostly Cloudy
6:35 PM -38.2 °F -51.5 °F - N/A% 30.01 in 4.0 mi WSW 3.5 mph - N/A   Haze
6:45 PM -38.2 °F - - N/A% 30.02 in 10.0 mi Calm Calm - N/A   Scattered Clouds
6:53 PM -38.0 °F - - N/A% 30.02 in 10.0 mi Calm Calm - N/A   Partly Cloudy
7:53 PM -38.0 °F -51.3 °F - N/A% 30.02 in 10.0 mi West 3.5 mph - N/A   Clear
8:53 PM -38.9 °F - - N/A% 30.03 in 10.0 mi Calm Calm - N/A   Clear
9:53 PM -40.0 °F - - N/A% 30.03 in 9.0 mi Calm Calm - N/A   Clear
10:53 PM -43.1 °F -64.8 °F - N/A% 30.04 in 10.0 mi South 6.9 mph - N/A   Clear
11:53 PM -43.1 °F -66.6 °F - N/A% 30.05 in 10.0 mi SW 8.1 mph - N/A   Clear